Weather Roundup
Issued by NWS Chicago, IL

Home | Current Version | Previous Version | Graphics & Text | Print | Product List | Glossary On
Versions: 1 2 3 4 5 6 7 8 9 10 11 12 13 14 15 16 17 18 19 20 21 22 23 24 25 26 27 28 29 30 31 32 33 34 35 36 37 38 39 40 41 42 43 44 45 46 47 48 49 50
000
NZUS59 KLOT 050521
HRRLOT

CHICAGO AREA WEATHER ROUNDUP
NATIONAL WEATHER SERVICE CHICAGO/ROMEOVILLE IL
1200 AM CDT TUE MAY 05 2015

NOTE: "FAIR" INDICATES FEW OR NO CLOUDS BELOW 12,000 FEET WITH NO
SIGNIFICANT WEATHER AND/OR OBSTRUCTIONS TO VISIBILITY.

* THESE STATIONS ARE NOT UNDER NWS QUALITY CONTROL. THEY ALSO MAY NOT
  REPORT WEATHER SUCH AS PRECIPITATION OR FOG.

ILZ005-006-012>014-019>023-050600-
NORTHEAST ILLINOIS

CITY           SKY/WX    TMP DP  RH WIND       PRES   REMARKS
OHARE          CLOUDY    55  37  50 NE5       30.17S
MIDWAY         MOCLDY    60  33  36 NE10      30.17S
AURORA         CLOUDY    54  46  74 N6        30.19R
LANSING*       MOCLDY    53  47  79 NE3       30.18S
JOLIET*        CLOUDY    61  51  69 CALM      30.18R
WAUKEGAN       MOCLDY    47  39  74 CALM      30.19S
DUPAGE AIRPORT CLOUDY    57  37  47 E8        30.16S
WHEELING       MOCLDY    54  36  50 NE5       30.19F
KANKAKEE*      CLOUDY    60  59  96 NE7       30.15S FOG
MORRIS*        LGT RAIN  59  53  83 E9        30.13F
LEWIS AIRPORT* CLOUDY    57  46  65 E6        30.17R
NORTHERLY IS     N/A     52  39  61 MISG        N/A
$$

WIZ051-052-058>065-066-070>072-050600-
SOUTHEAST WISCONSIN

CITY           SKY/WX    TMP DP  RH WIND       PRES   REMARKS
MILWAUKEE      MOCLDY    51  34  52 N6        30.21S
KENOSHA*       PTCLDY    49  38  65 CALM      30.20S
RACINE*        PTCLDY    50  35  56 N8        30.21F
BURLINGTON     MOCLDY    49  36  60 CALM      30.20R
WAUKESHA       MOCLDY    50  34  53 NE3       30.22R
WEST BEND      PTCLDY    48  34  57 CALM      30.22R
$$

INZ001>003-010>013-019-020-050600-
NORTHWEST INDIANA

CITY           SKY/WX    TMP DP  RH WIND       PRES   REMARKS
GARY*          CLOUDY    52  46  78 CALM      30.18S
MICHIGAN CITY* NOT AVBL
RENSSELAER*    NOT AVBL
VALPARAISO     MOCLDY    58  55  90 N3        30.18R
$$

LMZ740>746-050600-
SOUTHERN LAKE MICHIGAN

STATION/POSITION TIME  SKY/WX   TEMP WIND        PRES    VSBY
                                AIR  DIR/SP/G
                 (UTC)          (F)  (DEG/KT/KT) (MB)    (MI)
HARRISON CRIB    0500            49  360/  3/  5   N/A
BURNHAM HARBOR   0500            52  360/  2/  7   N/A
CALUMET HARBOR   0400            51  340/  5/  8   N/A
BURNS HARBOR     0400            53   60/  8/ 10 1022.0F
MICHIGAN CITY    0500            53   40/ 10/ 12   N/A
$$

ABBREVIATIONS USED IN REMARKS
   TC - TEMPERATURE IN CELSIUS
  WCI - WIND CHILL INDEX
   HX - HEAT INDEX
  VSB - VISIBILITY
$$


USA.gov is the U.S. government's official web portal to all federal, state and local government web resources and services.